Location: Ash Shall?l al Awwal
(24.0167°N, 32.8667°E)
Time: 11:21:21
(UTC+00:00)

H-2A R/B - Pass Details

Date: 02 March 2021
Orbit: 732 x 837 km, 98.2° (Epoch: 15 April)

Event Time Altitude Azimuth Distance (km) Brightness Sun altitude
Rises 16:44:41 0° 168° (SSE) 3,330 5.2 -12.9°
Reaches altitude 10° 16:47:00 10° 168° (SSE) 2,412 4.5 -13.4°
Maximum altitude 16:52:23 86° 257° (WSW) 838 2.2 -14.6°
Drops below altitude 10° 16:57:51 10° 347° (NNW) 2,450 4.8 -15.9°
Sets 17:00:13 0° 348° (NNW) 3,386 5.5 -16.4°
